This is the latest recevied weather packets stored in our database for station/object OE3BCB-14. If no packets are shown the sender has not sent any weather packets the latest 10 day(s).
| Time | Temp. | Humidity | Pressure | Rain* | Wind** | Luminosity | Snow |
|---|---|---|---|---|---|---|---|
| 1778077688 | 35.56° C | 18% | 1005.7 hPa | - | - | 140 W/m² | - |
| 1778077386 | 35.56° C | 18% | 1005.7 hPa | - | - | 119 W/m² | - |
| 1778076781 | 35° C | 19% | 1005.9 hPa | - | - | 166 W/m² | - |
| 1778076479 | 33.89° C | 18% | 1005.8 hPa | - | - | 128 W/m² | - |
| 1778076177 | 35.56° C | 18% | 1005.9 hPa | - | - | 129 W/m² | - |
| 1778075874 | 35.56° C | 17% | 1005.9 hPa | - | - | 106 W/m² | - |
| 1778075572 | 37.78° C | 17% | 1006 hPa | - | - | 108 W/m² | - |
| 1778075269 | 37.78° C | 18% | 1005.9 hPa | - | - | 108 W/m² | - |
| 1778074362 | 37.22° C | 18% | 1006 hPa | - | - | 95 W/m² | - |
| 1778073757 | 38.89° C | 18% | 1006.2 hPa | - | - | 91 W/m² | - |
| 1778073455 | 42.22° C | 18% | 1006.3 hPa | - | - | 116 W/m² | - |
| 1778072850 | 40° C | 19% | 1006.2 hPa | - | - | 121 W/m² | - |
| 1778072547 | 36.67° C | 20% | 1006.3 hPa | - | - | 129 W/m² | - |
| 1778072245 | 37.78° C | 20% | 1006.4 hPa | - | - | 105 W/m² | - |
| 1778071943 | 39.44° C | 20% | 1006.5 hPa | - | - | 103 W/m² | - |
| 1778071338 | 35° C | 21% | 1006.5 hPa | - | - | 106 W/m² | - |
| 1778071035 | 35.56° C | 21% | 1006.6 hPa | - | - | 139 W/m² | - |
| 1778070733 | 35° C | 20% | 1006.6 hPa | - | - | 93 W/m² | - |
| 1778070431 | 36.11° C | 20% | 1006.7 hPa | - | - | 96 W/m² | - |
| 1778070128 | 38.89° C | 20% | 1006.8 hPa | - | - | 90 W/m² | - |
| 1778069523 | 37.22° C | 21% | 1006.8 hPa | - | - | 135 W/m² | - |
| 1778069221 | 36.67° C | 21% | 1006.8 hPa | - | - | 159 W/m² | - |
| 1778068918 | 36.67° C | 22% | 1006.9 hPa | - | - | 183 W/m² | - |
| 1778068616 | 37.22° C | 21% | 1007.1 hPa | - | - | 158 W/m² | - |
| 1778068314 | 38.89° C | 21% | 1007.2 hPa | - | - | 160 W/m² | - |
* Rain since midnight (hover to see other rain measurements)
** Current wind speed in m/s (hover to see current wind gust speed)